ECMWFFLT2_850_thetae_021.txt.gz
Theta_e
332 332 333 334 334 334 336 337 338 337 337 336 336 336 335 333 332 331 331 331 330 329 329 328 329 328 326 322 321 321 321 322 323 320 318 318 316 321 326 327 326 326 327 329 330 329 328 328 324 322 326 329 329 330 329 329 328 327 325 322 319 316
331 331 331 332 333 333 334 336 337 337 337 336 336 336 335 334 333 331 331 331 330 329 329 328 329 328 326 324 323 321 321 322 322 319 319 318 315 316 323 328 328 327 325 325 326 328 328 329 327 321 323 327 329 331 329 329 329 327 326 323 321 318
330 330 329 330 332 333 332 332 334 336 335 335 336 336 335 334 333 332 332 331 330 329 329 328 328 328 326 325 325 322 322 323 322 321 320 319 317 315 320 325 327 329 328 324 321 322 327 328 328 325 323 325 328 331 330 329 328 326 326 325 323 321
330 330 329 330 332 333 332 332 332 333 334 334 334 335 335 334 333 332 332 331 330 329 329 327 328 328 326 325 325 323 324 325 323 322 321 320 319 316 317 321 323 326 328 328 320 316 323 328 327 327 325 324 328 330 330 329 326 326 325 325 324 322
331 331 330 329 330 332 333 333 332 332 333 333 334 334 334 334 333 333 332 331 330 329 328 327 328 328 327 326 324 324 326 327 325 324 322 321 321 318 316 319 320 321 323 327 325 315 318 326 327 327 326 325 328 330 330 328 326 326 325 325 325 323
333 333 332 331 330 331 332 333 333 333 333 333 333 333 333 333 333 333 333 331 330 329 327 326 327 328 328 326 325 325 326 327 326 324 323 323 323 320 317 318 318 319 319 322 326 321 318 324 326 327 327 326 329 330 330 328 325 325 326 325 325 323
335 335 334 334 333 333 333 333 333 333 333 332 331 331 331 333 333 334 333 331 330 328 326 325 327 327 327 327 326 326 326 327 327 325 323 323 323 322 319 317 316 318 318 317 323 325 320 322 326 326 326 327 328 329 329 327 325 325 326 325 324 323
334 334 334 333 332 332 331 331 331 332 333 333 331 330 329 330 332 334 333 331 330 328 325 325 327 327 327 327 327 327 326 326 327 327 324 323 323 323 320 318 316 316 318 317 320 327 324 322 325 326 325 326 328 328 327 325 324 325 324 323 322 322
326 327 327 326 325 326 326 328 330 331 333 334 334 331 328 327 329 332 333 331 330 328 325 325 327 328 327 327 327 327 327 328 328 328 325 323 323 324 322 318 316 315 318 317 318 325 326 323 324 325 323 325 328 327 326 325 325 325 322 321 321 321
317 318 318 318 318 318 319 324 328 331 333 334 335 333 330 326 326 329 330 330 330 328 325 326 328 329 329 327 327 327 327 328 329 329 327 324 322 324 322 316 313 314 316 316 317 322 326 324 323 323 322 323 327 327 325 325 324 324 321 320 320 320
316 315 315 315 314 314 314 317 322 327 331 333 334 333 332 328 326 327 327 326 327 327 327 327 328 329 329 328 328 328 329 329 329 330 329 325 323 325 323 314 311 311 313 314 316 321 323 323 322 321 321 321 325 326 325 325 324 323 321 320 321 322
315 315 315 315 314 313 313 314 317 323 327 330 331 333 332 331 328 327 327 327 327 327 328 329 329 330 330 329 329 330 330 330 331 331 330 327 323 325 324 315 311 312 314 315 317 322 324 322 322 321 320 320 323 326 325 325 323 322 321 320 322 323
314 314 315 316 316 314 315 316 318 323 326 328 329 331 332 332 330 328 328 329 328 328 328 329 330 330 330 330 329 330 331 331 332 331 331 328 323 324 324 316 316 318 320 321 319 323 325 324 323 321 320 319 321 324 325 324 323 322 321 321 323 324
313 314 316 317 316 316 316 317 319 322 324 325 325 327 330 331 331 330 329 330 331 330 329 330 330 330 330 330 329 331 332 331 331 331 332 331 325 324 324 319 320 324 325 325 322 321 323 325 325 323 321 320 320 321 323 324 324 323 321 321 324 325
312 313 316 316 315 315 317 318 320 321 322 322 321 323 324 325 326 326 327 329 331 331 331 331 331 331 331 331 331 331 331 330 331 331 332 332 328 325 325 322 322 325 326 327 326 323 322 324 326 325 324 323 321 320 321 322 323 322 321 321 325 326
311 312 314 315 315 316 318 319 320 320 319 319 319 319 319 319 320 321 322 324 326 327 328 329 329 330 331 331 331 330 330 330 330 331 330 331 330 326 324 324 323 324 325 326 327 326 325 323 323 326 326 325 324 322 321 320 320 320 320 322 324 325
309 310 311 312 314 316 318 319 320 319 318 317 316 317 317 317 318 320 321 321 322 322 323 324 325 326 328 330 330 330 329 330 331 331 330 330 331 328 325 324 324 324 324 325 326 326 326 325 324 326 327 326 325 324 322 320 320 320 322 323 324 325
309 309 309 310 312 315 316 317 318 317 316 315 313 313 314 315 318 320 320 320 320 320 319 320 319 320 323 326 328 329 329 331 331 330 330 330 330 329 327 325 324 325 324 325 326 326 326 326 326 326 327 327 326 325 323 321 322 323 324 324 324 324
309 309 309 309 311 313 314 314 313 312 312 312 311 310 311 313 315 316 315 314 313 314 313 313 313 315 316 319 321 324 326 328 330 330 330 330 329 329 329 328 326 326 326 326 326 326 327 327 327 327 327 327 326 325 325 324 325 324 325 325 324 323
309 309 309 309 310 312 312 310 308 308 308 309 309 308 308 309 309 308 307 306 306 306 306 306 307 310 312 312 314 317 319 322 325 328 329 329 330 330 330 330 329 329 328 327 327 327 327 328 328 328 327 327 327 327 327 326 325 325 325 325 325 324
309 309 309 308 309 309 309 308 307 307 307 307 306 306 306 307 306 306 305 304 304 303 303 303 304 307 308 309 310 312 314 316 319 323 326 328 329 330 330 330 330 330 330 329 328 328 328 328 328 328 328 328 328 328 328 327 325 325 326 325 325 324
309 309 309 308 307 307 307 307 307 306 306 306 306 306 306 306 306 306 305 305 305 304 303 303 303 305 307 307 309 311 312 313 316 321 325 326 327 328 329 330 329 330 330 330 330 329 329 329 328 328 328 328 329 328 328 328 327 326 325 325 325 325
309 309 309 308 307 307 307 307 306 306 306 307 307 307 306 306 306 306 306 306 305 304 304 303 304 304 306 307 309 310 311 313 315 319 323 325 326 327 328 328 328 328 329 329 330 330 330 330 330 330 329 329 330 329 328 328 328 327 326 327 326 325
309 309 308 308 307 308 307 306 307 307 307 307 307 307 307 307 307 306 306 306 306 305 304 304 304 305 306 307 309 310 310 311 313 317 319 321 322 324 325 326 326 327 327 328 328 328 329 330 330 330 330 330 330 329 328 328 328 328 327 327 327 327
309 309 309 308 308 308 308 307 307 308 308 308 308 308 307 307 307 307 307 307 306 305 305 304 305 306 307 307 308 309 309 310 311 312 314 315 316 318 320 322 322 323 324 325 327 327 327 328 328 329 330 330 330 329 329 328 328 329 329 328 328 328
310 309 309 308 309 309 308 308 308 308 308 308 308 308 308 308 308 308 307 307 307 306 305 305 305 306 307 307 307 308 308 308 308 309 309 310 310 311 312 314 316 317 318 320 323 323 324 326 326 327 327 329 329 328 328 329 328 329 328 328 329 329
310 309 310 309 309 309 309 308 308 309 308 308 308 308 308 308 308 308 308 307 307 306 306 305 305 305 306 307 307 307 307 307 307 308 308 308 308 308 308 309 310 311 312 314 317 320 322 324 324 325 326 327 327 327 328 328 328 328 329 328 328 328
311 309 310 310 309 309 309 309 309 309 309 309 308 309 309 309 308 308 308 308 307 307 306 306 305 304 304 304 305 305 305 305 305 305 306 306 307 307 307 307 308 309 309 311 313 316 319 320 322 323 324 325 325 325 326 327 327 327 328 328 327 327
311 309 310 310 310 310 309 309 309 309 309 309 309 309 309 309 309 308 308 308 307 307 307 306 306 305 305 304 304 305 304 305 304 304 304 304 304 304 304 305 305 306 307 308 310 313 315 317 318 319 320 321 322 323 324 325 325 325 326 327 327 327
313 310 310 310 310 310 309 309 309 309 309 309 309 309 310 309 309 309 309 308 308 307 307 306 306 306 305 305 305 305 305 305 305 305 305 305 304 304 304 304 304 304 304 305 306 307 309 311 312 314 315 315 317 318 319 321 322 322 323 324 325 325
314 312 310 310 310 310 309 309 309 309 309 310 310 310 310 310 310 310 309 309 308 308 307 307 306 306 306 305 305 305 305 305 305 305 305 304 304 305 305 305 305 304 304 304 304 304 305 305 306 307 308 309 310 311 313 316 317 318 319 321 322 322
315 314 312 311 311 310 310 309 309 309 309 310 310 310 310 310 310 310 310 309 309 308 308 307 307 306 306 306 305 306 306 306 305 305 305 305 305 305 305 305 305 305 305 305 304 304 304 304 304 304 305 305 306 306 307 309 311 312 314 316 318 318
317 316 314 312 311 311 311 310 309 309 309 309 310 310 310 311 311 311 311 310 309 309 308 308 307 307 306 306 306 306 306 306 306 305 305 305 305 305 305 305 305 305 305 305 304 304 304 304 303 303 304 304 304 304 304 305 305 307 308 311 314 316
316 316 316 314 312 311 311 311 310 309 309 309 310 310 311 311 311 311 311 311 311 310 309 308 308 307 307 307 306 306 306 306 306 306 305 305 305 305 305 305 305 305 305 305 304 304 304 304 304 303 303 303 303 303 303 303 303 303 304 305 309 312
316 316 316 315 314 312 311 312 311 310 309 309 309 310 310 311 311 311 311 311 311 311 311 310 308 308 307 307 307 306 306 306 306 306 305 305 305 305 305 305 305 305 305 305 304 304 304 304 303 303 303 303 303 302 302 302 302 302 302 302 303 305
317 316 316 316 315 314 312 311 312 311 310 310 309 309 310 311 311 312 312 312 311 311 311 311 310 309 308 307 307 307 307 307 306 306 306 305 305 305 305 305 304 304 305 305 304 304 303 303 303 303 303 303 303 303 302 302 302 302 302 302 302 302
317 317 316 316 316 315 313 313 312 312 312 311 310 310 310 310 311 311 312 312 312 312 312 312 312 310 309 308 308 307 307 307 306 306 306 306 305 305 304 304 304 304 304 304 304 303 303 303 303 302 302 302 302 302 302 302 302 302 302 302 302 302

ECMWFFLT2_850_thetae_024.txt.gz
Theta_e
337 336 336 337 337 337 337 335 335 336 337 337 336 335 333 332 332 332 332 331 331 331 331 331 331 330 328 325 323 322 322 322 322 323 323 321 321 322 324 327 327 328 329 328 329 329 329 327 324 325 328 330 330 331 330 331 332 331 331 328 327 327
336 336 335 336 338 337 338 338 337 336 336 337 337 336 335 333 333 333 332 330 332 332 332 332 331 331 330 327 324 322 322 322 324 323 320 320 320 320 323 327 328 327 327 328 330 330 329 328 326 323 325 329 330 331 332 331 332 331 331 330 329 324
335 335 334 334 336 337 337 338 338 337 337 337 337 337 336 335 334 333 332 331 334 334 333 334 332 331 331 329 326 323 323 323 324 322 319 319 319 318 320 323 327 328 327 326 327 328 328 327 327 323 321 326 331 332 332 331 331 332 331 330 329 323
334 334 335 334 334 335 335 336 337 336 337 337 337 337 337 337 335 334 334 334 335 335 334 335 332 330 330 328 328 325 323 323 323 321 320 321 321 318 317 320 324 326 328 328 326 326 326 327 327 326 323 326 331 332 332 331 331 332 331 330 329 324
333 333 335 335 334 335 335 335 335 336 337 337 336 337 338 337 336 336 335 334 335 333 334 336 331 330 329 328 330 327 324 325 325 323 322 323 325 322 320 322 323 323 326 328 328 326 326 326 327 327 326 324 328 331 331 331 331 331 331 331 329 323
333 333 334 335 335 335 334 333 334 335 336 336 336 336 337 335 336 336 335 334 335 332 333 335 330 329 332 332 334 330 328 330 330 329 326 323 328 327 325 326 326 324 323 326 328 327 327 325 326 328 327 325 324 328 331 332 331 330 331 332 328 323
334 334 335 335 334 334 333 333 334 334 335 337 336 336 336 335 336 336 335 335 334 332 333 335 332 331 334 334 335 333 332 333 332 333 329 325 328 329 328 327 326 324 320 321 324 325 327 324 324 326 328 327 324 325 329 331 331 330 330 331 328 324
335 335 335 335 335 334 334 334 334 334 336 335 335 336 336 336 336 336 335 335 333 333 333 333 333 332 334 334 334 333 332 332 333 334 330 326 328 329 328 327 326 324 319 320 323 324 327 326 324 325 327 328 326 325 327 329 331 330 330 330 329 324
332 333 333 333 334 334 333 333 333 335 337 334 335 335 333 334 336 336 335 333 333 334 334 332 329 329 332 334 332 330 329 329 329 331 330 327 328 328 328 327 327 326 321 320 324 325 326 327 326 325 326 327 327 327 326 328 329 329 330 330 330 325
327 328 328 328 330 330 329 330 331 334 335 334 336 335 330 330 333 334 334 333 333 334 333 329 325 327 331 332 329 328 328 329 328 328 329 328 327 327 327 326 326 327 324 321 323 325 325 325 326 325 326 326 327 328 327 327 328 329 330 329 329 327
324 325 323 324 325 325 325 325 328 330 331 333 335 335 331 331 331 332 333 333 333 332 331 328 325 327 330 330 329 328 328 329 329 329 329 328 328 327 327 326 325 325 325 324 322 324 325 325 326 325 325 325 326 328 328 328 328 329 329 328 328 328
323 320 318 322 322 322 323 323 324 325 328 331 332 333 333 332 332 333 331 331 331 330 330 328 327 328 329 329 329 328 328 328 329 329 330 329 329 329 328 327 324 320 321 323 321 321 324 325 326 325 325 325 326 327 328 328 329 328 328 328 328 328
318 315 315 320 320 321 323 323 323 324 326 328 329 330 331 331 331 331 329 328 330 330 329 329 328 329 330 330 329 329 329 329 330 330 331 330 330 329 328 327 323 318 317 320 320 318 318 321 325 326 326 326 326 327 327 327 328 328 328 328 327 328
312 311 313 316 317 320 322 323 324 324 326 327 327 327 329 332 332 330 329 328 330 330 329 329 328 329 330 330 330 330 330 331 331 331 331 330 330 329 328 327 324 322 321 320 321 317 312 316 323 326 327 327 326 326 326 327 327 328 328 328 328 328
311 312 313 314 317 321 322 322 323 323 324 325 326 327 329 331 331 331 331 330 330 330 330 329 329 330 330 331 330 330 330 331 331 331 332 331 331 330 328 327 325 326 324 321 323 320 314 315 320 324 326 326 326 327 326 326 327 327 327 328 328 328
311 312 314 314 317 321 322 322 322 322 323 322 322 324 325 326 328 328 329 329 327 327 329 329 329 330 331 331 331 331 331 331 331 331 332 331 332 331 329 327 325 326 327 324 324 323 320 317 319 323 325 324 325 326 327 327 327 327 327 327 327 328
312 313 315 314 315 317 318 319 320 319 320 320 321 324 323 323 324 324 324 324 322 322 325 326 326 328 329 330 331 331 331 331 332 331 332 331 331 332 329 327 326 326 327 327 326 325 325 323 320 320 321 324 326 324 325 327 327 327 326 327 327 327
311 313 315 315 316 316 316 317 316 316 316 317 319 321 323 323 322 322 321 319 319 320 321 323 325 325 326 328 330 331 332 331 332 331 331 332 331 332 331 329 328 326 325 327 327 325 325 326 325 323 320 321 324 325 324 325 326 326 326 326 326 326
309 311 311 314 316 315 316 317 315 315 314 315 318 320 321 322 320 320 318 314 315 317 319 321 323 324 324 325 328 330 330 331 332 331 331 331 331 332 331 330 330 327 325 325 326 324 323 324 325 326 326 322 321 323 324 324 324 326 327 326 326 326
309 309 309 311 316 318 320 320 318 319 318 318 321 321 320 321 320 319 317 314 314 315 317 316 316 320 322 321 324 327 327 328 329 331 331 331 331 331 331 330 330 328 326 325 324 324 323 323 322 324 326 325 322 321 323 323 323 325 327 327 327 327
310 310 309 311 316 321 322 322 320 321 320 319 320 319 318 319 319 315 313 313 313 311 311 308 307 316 319 317 320 324 325 324 325 328 330 330 330 331 331 331 330 329 328 327 325 324 325 325 325 324 324 325 325 324 325 325 324 325 327 327 328 327
310 309 310 310 313 317 319 320 320 319 319 320 320 320 320 316 312 308 306 307 308 306 306 305 304 312 318 319 319 322 323 323 323 324 326 328 329 330 330 330 330 330 330 329 328 328 327 327 327 326 325 325 326 326 328 328 327 327 327 327 327 327
310 309 309 309 311 312 313 314 316 315 317 319 317 317 316 311 307 306 305 305 305 305 306 309 310 314 319 321 320 321 321 322 322 322 325 327 328 329 329 330 329 330 330 330 330 330 329 328 328 327 326 326 327 327 328 328 328 329 329 328 328 328
310 310 309 309 310 310 308 307 309 308 311 314 311 309 309 307 307 307 306 306 306 305 307 313 317 319 320 319 319 320 320 321 321 321 322 324 325 327 328 329 329 329 329 330 330 330 330 330 329 329 328 329 329 328 328 327 327 329 329 328 329 329
310 310 309 309 308 308 308 307 307 307 307 309 308 307 309 308 307 308 307 306 306 305 307 312 316 318 319 318 318 319 319 319 319 319 320 320 321 322 324 326 327 328 328 329 329 329 329 330 330 330 330 330 329 328 328 326 327 328 328 328 329 329
311 310 309 309 308 308 309 308 307 308 308 309 310 312 314 312 309 310 309 307 306 306 306 308 312 315 317 317 317 318 318 318 318 318 318 319 319 319 320 321 323 325 326 326 328 328 328 328 328 329 329 330 330 329 329 327 327 328 327 327 327 328
312 310 310 309 309 309 309 308 308 308 309 313 316 315 313 311 310 309 308 307 307 306 305 306 307 308 310 313 314 315 315 316 316 315 315 316 316 316 316 315 316 320 322 323 325 326 326 326 326 326 326 328 329 329 329 328 328 329 329 329 327 328
313 311 310 310 309 309 309 308 308 309 310 315 318 314 309 308 309 308 307 308 307 306 306 305 305 306 306 306 307 308 308 309 311 311 311 311 310 310 309 307 309 313 315 318 320 322 323 323 324 324 324 325 327 327 328 328 328 328 328 329 328 328
314 311 310 310 310 309 309 309 308 309 309 314 317 314 310 308 308 308 308 308 307 307 306 306 305 305 305 305 305 305 305 305 306 307 308 307 305 305 305 305 305 306 307 310 314 316 318 319 321 321 322 323 324 324 325 326 327 327 327 327 328 328
315 313 311 310 310 309 309 309 309 309 309 311 312 312 311 310 308 308 308 308 308 307 307 306 306 306 306 306 306 305 305 305 305 306 306 306 305 305 305 305 305 304 305 305 306 308 311 313 314 316 317 319 321 321 322 323 323 324 324 325 326 326
316 314 313 310 310 310 309 309 309 309 309 309 309 309 310 310 309 309 309 308 309 309 308 307 306 306 306 306 305 306 305 306 305 305 305 305 305 306 306 306 306 305 305 305 305 305 305 306 307 307 309 312 315 315 316 318 320 320 321 322 322 323
316 315 314 311 310 310 310 309 309 309 309 309 309 309 310 310 309 310 310 310 310 310 309 307 307 306 306 306 306 306 306 306 306 305 305 305 305 305 306 306 306 306 306 305 305 305 305 304 304 304 304 305 307 307 308 311 313 313 315 318 319 319
317 316 315 313 310 310 310 310 309 309 309 309 309 309 310 311 310 311 312 312 311 312 311 309 307 307 307 306 306 306 306 306 306 306 305 305 305 306 306 306 306 306 306 306 306 305 305 305 305 304 304 304 304 305 305 305 305 305 307 309 314 317
318 316 316 315 311 310 311 310 309 309 309 309 309 309 310 312 312 312 315 313 312 313 313 311 309 308 307 307 306 306 306 306 306 306 306 305 305 305 306 306 306 306 306 305 305 305 305 305 305 304 304 304 304 304 304 303 303 303 303 304 308 314
317 316 316 315 314 311 311 311 310 309 309 309 310 309 310 314 313 312 314 313 312 313 314 313 312 309 308 307 307 307 307 307 307 306 306 305 305 305 305 305 305 305 305 305 305 305 304 304 304 304 304 304 304 303 303 303 303 304 305 304 304 306
317 317 315 314 314 312 311 311 310 310 309 309 309 309 310 312 312 311 312 313 312 313 313 315 314 310 308 308 307 307 307 307 307 307 307 306 306 305 305 305 305 305 305 305 305 304 304 304 303 303 303 303 303 303 303 303 303 303 304 304 304 304
317 317 316 314 313 311 310 310 311 311 310 309 309 309 309 310 310 310 311 312 313 313 313 314 314 311 309 309 308 307 307 307 307 307 307 307 306 306 305 305 305 305 305 305 305 304 304 304 303 303 303 302 302 302 302 302 303 302 302 302 304 305

ECMWFFLT2_850_thetae_030.txt.gz
Theta_e
339 339 338 337 336 335 334 333 332 332 332 332 332 332 332 331 331 332 333 331 329 331 331 330 331 331 332 332 328 325 323 322 320 321 321 322 322 321 321 322 323 324 325 323 323 323 324 326 327 327 325 323 321 321 327 333 332 332 331 330 331 332
340 340 339 338 336 337 336 335 334 334 333 332 332 333 333 332 332 333 333 331 330 331 331 331 331 331 331 331 328 325 323 321 321 321 321 321 322 322 320 319 320 321 324 325 324 322 321 323 325 326 326 324 323 320 323 330 331 332 332 331 331 330
341 339 337 335 335 337 338 337 336 336 335 334 333 333 334 333 333 333 332 330 330 331 331 330 331 331 331 330 329 326 323 322 322 321 321 321 320 320 319 318 319 321 324 326 326 323 321 322 324 324 325 325 325 321 321 325 329 332 332 330 331 330
340 337 335 335 336 337 337 337 337 337 337 336 335 334 333 333 333 333 332 330 331 331 330 330 331 331 330 330 330 328 324 323 323 321 321 320 320 321 318 317 317 319 323 325 325 325 323 324 326 325 324 326 327 325 326 328 330 333 332 331 331 331
338 337 335 336 336 337 338 338 337 336 336 336 336 336 334 334 333 332 332 330 331 330 329 331 331 331 331 331 330 328 326 325 324 323 322 321 324 326 323 322 320 317 319 323 325 326 327 327 327 326 326 329 330 330 332 332 331 333 333 332 332 331
336 336 335 334 333 335 336 336 336 335 333 335 336 335 333 333 333 333 331 331 332 331 330 331 331 330 331 330 330 329 328 327 327 327 326 322 326 331 328 328 328 322 318 323 328 327 329 329 327 327 327 329 331 332 333 334 333 334 333 332 332 331
334 335 335 334 332 333 333 332 333 333 331 333 335 335 334 333 332 332 330 331 333 332 332 331 330 330 330 330 331 330 329 330 329 330 329 325 328 332 330 330 331 329 325 327 329 329 329 329 327 327 327 328 330 330 332 335 335 334 334 333 332 331
332 333 334 334 334 333 332 331 331 332 330 330 332 333 333 332 332 330 329 331 332 331 331 330 329 330 330 330 331 330 329 330 330 330 330 328 329 331 331 331 331 330 330 329 328 329 329 328 328 327 327 328 329 330 332 334 335 334 334 333 332 331
332 331 331 331 332 333 332 332 332 331 329 329 332 333 331 331 332 332 331 331 330 331 331 330 330 330 330 330 330 329 330 331 331 331 332 330 330 331 331 331 330 330 330 329 328 327 328 328 327 327 327 327 328 329 331 332 334 334 334 334 332 331
334 333 333 332 333 333 333 332 331 328 328 329 330 331 330 331 332 333 332 331 330 331 332 332 331 331 331 331 330 330 331 332 331 331 332 331 331 331 331 331 330 330 330 329 328 327 327 327 327 327 327 326 327 329 329 330 332 334 334 333 332 331
335 335 334 334 334 333 332 332 332 329 329 329 328 327 329 331 331 332 332 332 332 331 331 331 332 332 332 332 332 331 331 331 330 331 332 332 332 331 331 331 330 329 330 329 328 328 326 325 326 327 327 326 325 327 329 329 330 332 333 333 332 331
335 333 332 333 333 332 330 330 330 330 330 331 330 328 330 331 329 330 332 332 332 331 332 331 331 332 331 331 332 332 332 331 330 331 332 331 331 331 330 330 331 330 329 329 327 327 326 325 325 326 326 325 324 325 328 329 329 330 332 332 332 331
331 329 332 331 330 330 328 329 329 328 330 330 331 329 330 331 329 330 331 332 332 332 332 331 331 331 330 330 330 330 330 330 330 330 330 330 328 328 327 328 331 331 329 329 327 325 325 324 325 325 326 326 325 324 326 328 328 329 331 331 331 331
322 321 325 326 328 330 328 329 328 329 331 331 331 330 330 330 329 330 331 331 331 331 331 331 331 331 330 330 330 330 329 328 330 330 329 328 325 324 325 328 331 330 329 328 328 326 324 325 325 325 325 327 326 325 325 327 327 328 330 330 330 330
314 314 316 318 324 328 327 328 330 330 331 331 331 331 330 331 330 330 330 330 331 331 331 332 331 331 330 330 331 331 330 330 330 329 329 327 326 326 328 329 330 330 329 328 327 325 324 323 323 324 325 326 327 326 326 326 327 327 328 330 330 329
312 312 314 315 316 320 322 325 327 327 328 328 330 329 329 330 329 330 330 330 331 330 331 331 331 331 330 330 331 331 331 331 330 329 329 328 328 329 330 330 331 330 328 328 327 326 326 321 319 323 327 326 327 328 327 327 327 327 328 328 329 329
314 312 313 313 313 315 317 319 321 324 326 328 328 327 327 327 327 328 329 330 331 329 329 329 329 330 330 330 331 331 331 331 331 330 330 330 329 330 331 331 331 330 329 329 328 327 328 323 318 322 326 327 328 328 329 328 326 327 327 328 328 328
313 312 311 311 313 313 315 320 321 320 322 324 325 326 326 326 326 326 325 327 328 327 326 326 326 327 328 329 330 330 330 330 331 331 330 330 330 330 331 331 330 330 330 329 328 328 328 326 322 323 325 326 327 328 328 328 327 327 327 327 327 328
312 312 313 313 313 311 315 320 320 320 321 323 325 324 325 325 325 325 325 324 323 323 325 324 324 326 327 328 328 328 328 328 329 330 330 330 330 330 330 331 329 330 330 329 329 328 328 328 326 325 325 324 326 327 327 328 328 327 327 327 327 327
313 313 314 313 313 316 320 322 322 323 324 325 325 322 323 325 324 324 324 323 321 322 325 324 324 326 325 324 325 325 325 326 327 328 329 329 330 330 330 330 329 330 330 329 329 329 329 329 328 328 326 324 323 323 325 327 328 328 328 327 327 327
314 313 312 314 319 324 326 324 324 324 322 323 323 320 323 324 322 322 319 319 321 322 323 321 320 322 322 321 323 324 323 324 326 327 328 329 329 330 329 330 330 330 330 329 329 329 328 328 327 328 327 324 322 321 322 325 326 328 328 328 327 327
314 312 313 317 323 326 326 324 322 323 322 323 323 322 324 321 315 313 310 311 313 316 321 319 316 318 320 322 322 323 323 324 326 327 327 328 328 329 329 329 329 329 329 329 329 329 329 328 327 328 326 325 323 323 323 322 324 327 328 328 328 327
313 312 315 320 323 324 325 324 322 321 322 323 323 323 321 317 313 309 308 310 309 313 322 323 319 320 322 322 321 321 322 323 324 325 325 325 326 327 327 328 329 329 329 329 329 328 328 328 328 328 327 326 325 325 325 324 322 324 325 325 325 327
313 312 314 319 322 322 321 322 321 321 323 322 318 316 313 313 316 314 311 310 309 315 323 323 321 322 322 320 321 321 320 320 322 322 323 323 324 324 325 326 327 328 329 329 328 328 328 328 328 327 327 326 326 327 327 326 323 323 324 324 323 325
312 313 313 316 318 316 314 317 317 318 320 316 310 311 314 316 320 320 314 309 312 318 321 322 322 322 321 320 319 320 320 319 320 320 322 323 322 322 322 323 324 325 326 327 328 328 328 328 328 328 327 327 327 327 327 326 325 324 325 325 324 325
312 312 313 314 314 312 311 311 311 311 313 312 312 317 320 320 321 320 316 311 313 316 317 320 321 319 319 320 319 319 320 320 319 318 319 320 321 321 321 322 323 323 323 325 327 328 327 327 327 328 328 328 328 328 327 327 325 324 324 325 325 324
312 312 313 314 313 311 311 309 309 311 313 315 319 321 321 320 318 314 311 309 309 312 314 316 316 316 316 316 317 318 318 318 317 317 316 315 317 319 318 319 321 323 323 324 325 325 326 327 327 326 327 327 327 326 327 328 327 325 324 325 326 324
312 312 312 314 313 311 311 309 311 316 319 320 322 321 318 316 313 309 308 310 311 312 315 316 317 318 316 311 313 315 316 317 316 316 315 311 310 311 310 310 312 317 321 322 323 324 323 324 324 325 325 325 324 324 326 328 327 326 327 327 327 325
314 312 312 314 313 311 311 309 313 319 320 320 321 318 314 313 311 309 309 314 316 312 312 314 314 315 313 308 308 310 311 314 315 315 314 308 306 306 306 305 305 308 311 314 318 322 322 321 322 323 323 322 322 323 324 326 326 326 327 327 327 326
317 314 312 313 313 312 312 309 313 319 320 321 320 315 314 313 310 310 310 312 314 312 310 310 309 310 310 308 307 307 306 308 311 312 312 308 307 306 306 306 305 306 306 306 309 314 315 315 315 317 320 321 321 322 322 323 324 324 324 324 324 325
321 317 313 313 313 312 312 310 313 318 320 321 319 315 317 315 309 311 311 311 315 316 313 309 308 309 309 308 307 307 307 306 307 308 309 309 309 308 306 307 307 306 306 306 305 307 308 307 308 310 314 318 319 320 321 321 322 323 322 321 322 324
324 321 315 313 312 312 312 311 313 318 320 321 319 316 317 315 310 312 312 313 317 318 314 310 308 308 308 308 308 308 308 307 307 307 307 308 310 309 307 307 307 307 307 307 306 306 305 306 306 307 308 313 315 315 316 318 318 319 317 315 316 319
325 323 318 314 312 312 312 312 313 317 320 322 319 316 316 313 312 314 313 315 318 318 316 314 311 309 308 308 308 308 308 308 307 307 306 307 307 307 308 308 306 307 307 306 307 306 306 306 306 306 306 310 313 312 310 310 309 310 310 308 310 315
326 324 320 316 313 311 312 312 313 316 320 322 319 315 317 315 312 315 316 316 318 319 319 317 314 312 310 308 308 308 308 308 308 308 307 307 306 307 312 312 307 306 307 306 307 306 306 305 305 305 305 306 308 307 306 306 306 310 312 309 309 312
328 326 323 318 314 312 311 311 313 317 320 320 317 314 317 318 314 315 319 319 318 319 320 319 318 315 311 309 309 309 309 308 308 308 308 308 307 307 310 310 307 306 306 306 307 306 305 305 304 304 304 305 307 305 303 305 305 309 311 307 308 309
328 328 327 321 315 312 311 311 312 316 319 320 318 314 316 320 318 317 319 320 319 319 319 320 319 317 314 311 310 309 309 309 308 309 309 308 308 307 307 308 307 307 306 306 306 306 306 305 304 304 303 305 308 304 302 304 303 304 305 303 307 310
328 328 328 324 316 312 311 311 312 315 319 321 321 317 316 319 320 319 319 320 320 319 318 319 319 318 316 312 311 310 310 310 309 309 309 308 308 308 307 308 307 307 306 306 306 306 306 305 304 304 303 304 308 306 302 303 303 302 303 302 304 309

ECMWFFLT2_850_thetae_033.txt.gz
Theta_e
334 333 333 332 332 332 332 332 332 331 330 330 331 331 332 332 331 330 330 329 328 329 329 329 329 329 331 331 332 329 324 322 322 321 321 321 321 320 321 323 324 325 324 321 319 321 322 321 320 321 320 324 331 333 332 334 333 329 329 330 330 329
336 335 334 334 333 332 332 332 332 332 331 331 332 332 332 332 332 331 331 330 329 330 330 330 329 329 330 330 331 328 324 323 322 321 321 321 321 322 322 321 322 324 325 324 322 321 323 324 323 322 321 323 330 333 333 334 333 331 330 331 331 330
337 336 336 335 335 335 333 332 332 332 332 332 332 332 333 332 332 331 331 330 330 330 330 330 330 330 330 330 330 328 325 323 322 321 321 322 321 321 321 319 319 321 323 325 324 321 322 324 324 324 323 323 326 331 333 333 333 332 332 332 331 330
338 337 337 336 336 336 335 335 334 333 333 334 333 333 333 333 331 331 331 330 330 331 330 330 331 331 331 330 330 329 326 323 322 322 321 321 320 320 320 318 317 318 320 323 325 322 322 326 325 325 325 325 325 325 328 332 333 332 332 332 331 331
338 336 335 336 335 336 336 336 336 335 335 335 334 334 333 333 331 329 331 331 330 330 331 331 330 331 331 330 330 330 328 325 323 322 322 321 320 323 325 323 322 318 316 321 326 324 325 327 327 326 326 329 329 325 325 332 333 333 333 332 332 331
336 335 335 335 335 336 336 337 337 336 336 334 334 334 334 333 331 331 332 332 330 330 330 330 331 331 330 330 330 331 329 326 324 323 324 322 322 327 329 328 329 323 316 320 326 327 328 328 328 328 326 329 332 328 328 333 334 333 333 332 332 332
334 334 334 335 335 335 336 336 336 336 335 333 332 333 333 331 331 332 332 331 329 329 330 331 332 331 330 330 331 331 329 327 326 326 327 325 324 330 331 330 331 328 323 325 328 328 328 329 329 329 326 327 330 329 329 332 333 334 334 333 333 332
332 332 333 333 334 334 334 334 334 334 334 332 331 331 332 331 331 332 331 330 329 330 332 332 332 331 330 330 330 331 330 329 329 328 329 328 326 330 331 330 331 330 328 327 327 328 328 328 329 328 327 327 328 329 329 331 333 335 334 333 333 332
330 331 332 333 333 333 332 331 331 332 331 329 329 330 331 331 332 332 331 331 331 332 333 332 331 330 330 329 330 331 330 329 330 329 329 330 328 330 330 329 330 330 329 327 326 328 328 328 328 328 327 326 328 329 330 331 332 334 334 333 333 333
331 331 332 331 331 332 331 330 331 331 329 328 328 330 330 330 331 332 331 331 332 332 332 332 330 329 330 329 330 330 330 330 330 330 330 331 330 329 330 331 330 330 330 328 326 327 328 326 326 327 326 326 328 329 330 331 330 332 333 334 334 333
333 332 332 331 331 332 332 331 331 331 330 328 328 328 328 329 330 332 332 332 331 331 331 332 331 330 331 330 331 331 331 331 331 331 330 331 331 330 330 330 330 329 330 329 327 327 327 327 326 326 326 326 327 327 328 330 330 330 332 333 334 332
333 333 332 332 331 330 330 330 330 330 330 329 329 328 327 329 330 332 332 332 331 331 331 332 332 331 331 332 332 332 332 331 331 331 330 331 331 331 330 330 330 329 330 329 328 328 328 327 326 326 326 326 327 325 325 328 329 329 330 331 333 332
332 332 332 330 327 328 329 329 328 328 329 329 329 328 328 330 330 330 331 331 332 332 332 332 331 331 332 332 331 331 331 331 331 330 330 331 330 330 330 329 329 329 329 329 328 328 327 326 325 325 325 326 326 325 324 327 328 328 329 330 331 331
332 332 331 327 324 325 328 328 327 328 328 329 329 328 329 330 329 328 330 331 331 332 331 331 330 330 329 328 329 329 330 330 330 329 329 330 330 329 328 328 328 328 329 329 328 327 327 325 325 324 325 325 326 326 325 326 327 328 328 329 330 330
331 331 330 327 326 326 327 327 325 326 327 328 328 327 328 329 329 329 329 329 330 331 331 330 330 329 327 326 327 329 330 329 329 329 330 330 329 328 327 326 327 328 329 329 329 328 326 325 324 324 324 325 326 326 326 327 327 327 327 328 330 330
330 331 329 327 328 327 326 326 324 323 322 325 326 325 326 328 328 329 329 329 330 330 330 330 330 330 329 328 328 328 329 329 329 329 330 330 329 329 328 328 328 329 330 329 328 327 326 325 325 324 324 325 325 327 327 327 327 327 327 328 329 330
321 325 323 323 326 326 327 327 325 323 321 322 324 324 325 326 325 327 329 330 330 329 328 328 329 329 329 329 329 329 329 329 329 329 330 330 330 329 329 329 330 330 330 329 328 327 326 327 325 321 322 324 326 327 327 328 328 327 327 327 329 329
313 316 316 317 319 322 325 324 321 324 325 324 324 324 325 326 325 325 326 328 329 327 326 326 327 326 327 328 328 328 329 329 329 329 329 329 329 329 329 329 330 330 330 329 328 327 326 328 323 317 319 324 325 327 327 328 328 328 328 327 328 328
312 312 313 313 313 316 318 316 317 323 327 326 326 325 325 325 324 324 323 325 327 326 325 324 324 325 325 326 327 327 328 328 328 329 329 329 328 329 329 329 330 330 330 329 329 327 327 328 324 318 320 324 325 325 326 327 328 328 327 327 328 328
312 312 312 313 312 313 315 316 319 322 323 324 325 326 326 325 325 325 322 321 322 323 325 324 324 325 324 324 324 324 325 324 325 327 327 328 328 328 328 328 330 330 330 329 329 328 328 328 327 323 322 323 321 322 324 326 327 327 327 327 327 327
313 313 313 312 312 314 317 319 322 323 322 322 321 321 323 324 323 322 318 316 315 317 320 320 321 323 322 323 322 321 320 319 321 325 326 327 328 328 327 328 329 329 329 329 328 328 328 328 328 327 326 325 322 321 323 326 326 326 326 326 327 327
313 313 313 313 316 319 318 319 322 322 322 322 320 319 321 322 320 317 314 312 312 314 315 317 319 321 322 323 323 322 321 321 322 325 326 326 326 327 328 328 328 328 328 328 328 328 329 329 328 328 328 327 325 322 322 323 325 325 325 325 326 326
313 313 313 317 322 324 321 320 321 321 321 321 321 321 318 315 314 312 310 310 315 319 321 321 322 322 322 322 322 322 322 322 323 323 324 324 325 326 326 327 327 328 328 328 329 329 329 329 329 328 328 327 325 324 322 322 323 322 323 324 326 326
313 313 316 321 325 325 323 322 322 322 322 319 321 319 313 310 309 308 310 313 319 322 322 322 322 322 322 321 320 321 321 322 322 323 323 323 322 323 324 325 325 326 327 328 328 329 329 328 328 328 328 327 326 325 325 324 324 322 320 322 325 326
312 315 317 321 323 322 322 322 321 323 323 321 321 315 309 311 311 309 310 313 318 321 321 321 321 320 320 320 320 319 319 320 321 321 322 321 322 322 323 324 324 324 326 328 328 328 328 328 328 328 327 327 326 326 326 325 325 324 322 322 324 323
313 316 317 319 319 319 319 318 317 319 319 316 315 312 309 311 310 308 309 310 313 317 318 319 317 314 315 318 320 318 318 318 319 321 321 321 321 321 322 323 323 324 325 326 327 327 328 327 327 328 327 327 326 326 326 326 325 324 323 324 324 324
313 315 316 317 316 315 314 314 311 312 311 309 310 311 311 310 308 308 308 308 309 310 311 313 312 309 310 315 319 319 317 316 316 318 318 320 321 321 321 321 321 323 324 325 326 326 326 326 326 327 327 327 327 326 326 327 326 325 324 324 324 325
313 314 315 315 314 312 311 310 309 309 308 309 311 311 310 309 308 308 307 307 308 308 307 308 307 307 307 311 316 317 315 315 314 311 310 313 316 315 316 320 322 322 323 324 324 324 324 325 325 325 325 325 325 325 325 326 327 326 324 324 324 324
313 313 314 314 313 311 311 309 309 310 310 312 313 311 310 309 308 308 308 308 307 307 308 307 307 307 306 307 311 314 315 314 311 308 306 307 308 306 308 315 318 319 322 323 323 323 323 323 324 323 323 322 322 323 324 325 325 326 326 325 325 325
313 312 313 314 312 311 310 310 311 313 312 314 314 311 309 309 308 309 309 308 308 307 308 307 307 307 306 306 307 309 311 311 308 307 306 306 306 305 306 307 308 311 316 319 321 322 321 321 323 323 321 321 322 322 323 324 324 325 325 323 324 325
315 312 313 314 313 311 310 310 313 315 314 314 313 311 309 309 309 309 309 309 309 308 308 308 307 307 307 307 306 307 307 307 307 307 307 306 307 307 306 306 306 306 308 310 314 316 313 313 316 320 320 320 320 321 321 323 323 322 322 322 323 323
319 313 312 313 313 312 311 311 315 317 315 314 313 309 309 309 309 309 310 310 309 309 308 308 308 308 307 307 307 307 307 307 307 307 307 307 307 307 307 307 307 307 306 306 307 308 307 306 308 314 318 319 320 320 320 321 321 322 322 320 318 318
324 317 313 312 313 312 311 311 316 318 316 316 313 309 309 310 309 310 310 310 310 310 310 309 308 308 308 308 308 308 308 307 307 307 307 307 307 307 307 307 307 307 307 307 306 306 306 306 305 308 311 314 315 316 318 319 318 317 316 313 308 309
329 323 317 313 312 312 311 312 316 318 317 316 313 311 310 309 309 310 310 310 310 311 312 311 310 308 308 308 308 308 308 308 307 307 307 307 307 307 307 306 307 306 306 307 307 306 306 306 306 305 306 307 307 308 310 311 309 309 308 305 305 305
329 327 324 318 313 311 311 312 316 319 318 316 314 312 312 311 310 310 311 311 311 311 312 313 312 311 310 309 308 308 308 308 308 307 307 307 307 307 307 306 306 306 306 306 306 306 306 305 305 305 305 305 305 304 305 305 304 305 305 304 304 305
327 328 328 324 319 316 312 313 316 319 319 318 314 313 315 314 312 311 313 313 312 313 313 313 313 313 313 311 310 309 309 308 308 308 308 308 307 307 307 307 306 306 306 306 306 306 305 305 304 304 304 304 304 304 303 303 303 303 303 303 303 304
326 327 328 325 322 320 317 316 318 319 319 319 315 314 317 318 316 315 317 317 317 316 315 314 314 314 314 313 311 311 310 310 309 309 308 308 308 307 307 307 307 306 306 306 306 306 305 305 304 304 304 304 304 303 303 303 303 303 303 303 303 303